Prestonsburg, KY

11:17 PM EDT on April 28, 2017 (GMT -0400)
Prestonsburg

Weather History for KK22 - January, 2013

Change the Weather History Date:

Saturday, January 19, 2013

  Actual Average (KJKL) Record (KJKL)
Temperature  
Mean Temperature 43 °F -  
Max Temperature 54 °F 39 °F 64 °F (1995)
Min Temperature 32 °F 23 °F -18 °F (1994)
Degree Days  
Heating Degree Days 22    
Moisture  
Dew Point 23 °F    
Average Humidity 47    
Maximum Humidity 75    
Minimum Humidity 27    
Precipitation  
Precipitation 0.00 in - - ()
Sea Level Pressure  
Sea Level Pressure 30.19 in    
Wind  
Wind Speed 7 mph (SSW)    
Max Wind Speed 14 mph    
Max Gust Speed 22 mph    
Visibility 10 miles    
Events      
Averages and records for this station are not official NWS values.
T = Trace of Precipitation, MM = Missing Value Source: NWS Daily Summary

Daily Weather History Graph

Daily Weather History Graph

Search for Another Location

Airport or City:

Trip Planner

Search our weather history database for the weather conditions in past years. The results will help you decide how hot, cold, wet, or windy it might be!

Date:

Astronomy

Jan. 19, 2013 Rise Set
Actual Time 7:43 AM EST 5:40 PM EST
Civil Twilight 7:14 AM EST 6:08 PM EST
Nautical Twilight 6:42 AM EST 6:40 PM EST
Astronomical Twilight 6:11 AM EST 7:11 PM EST
Moon 12:04 PM EST (1/19) 1:17 AM EST (1/19)
Length of Visible Light 10h 54m
Length of Day
9h 57m
First Quarter, 57% of the Moon is Illuminated
Jan 19
First Quarter
Jan 26
Full
Feb 3
Last Quarter
Feb 10
New
Feb 17
First Quarter

Hourly Weather History & Observations

Time (EST) Temp. Windchill Dew Point Humidity Pressure Visibility Wind Dir Wind Speed Gust Speed Precip Events Conditions
12:15 AM 32.0 °F 27.5 °F 24.8 °F 75% 30.34 in 10.0 mi South 4.6 mph - N/A   Clear
12:35 AM 32.0 °F 27.5 °F 23.9 °F 72% 30.34 in 10.0 mi South 4.6 mph - N/A   Clear
12:55 AM 32.4 °F 26.9 °F 23.5 °F 70% 30.33 in 10.0 mi South 5.8 mph - N/A   Clear
1:15 AM 32.9 °F 29.8 °F 22.8 °F 66% 30.32 in 10.0 mi South 3.5 mph - N/A   Clear
1:35 AM 32.0 °F 27.5 °F 22.5 °F 68% 30.32 in 10.0 mi South 4.6 mph - N/A   Clear
1:55 AM 32.0 °F 27.5 °F 22.1 °F 67% 30.32 in 10.0 mi South 4.6 mph - N/A   Clear
2:15 AM 32.4 °F 26.9 °F 21.7 °F 65% 30.32 in 10.0 mi South 5.8 mph - N/A   Clear
2:35 AM 32.4 °F 26.0 °F 21.9 °F 65% 30.32 in 10.0 mi South 6.9 mph - N/A   Clear
2:55 AM 32.2 °F 27.7 °F 22.1 °F 66% 30.31 in 10.0 mi South 4.6 mph - N/A   Clear
3:15 AM 32.9 °F 28.5 °F 21.7 °F 64% 30.31 in 10.0 mi South 4.6 mph - N/A   Clear
3:35 AM 32.5 °F 27.1 °F 22.1 °F 65% 30.30 in 10.0 mi South 5.8 mph - N/A   Clear
3:55 AM 33.3 °F 27.9 °F 21.7 °F 63% 30.30 in 10.0 mi SSW 5.8 mph - N/A   Clear
4:15 AM 32.4 °F 27.9 °F 21.9 °F 65% 30.29 in 10.0 mi South 4.6 mph - N/A   Clear
4:35 AM 33.8 °F 30.8 °F 21.7 °F 61% 30.29 in 10.0 mi South 3.5 mph - N/A   Clear
4:55 AM 33.4 °F 30.4 °F 21.7 °F 62% 30.29 in 10.0 mi South 3.5 mph - N/A   Clear
5:15 AM 33.8 °F 29.6 °F 21.9 °F 62% 30.29 in 10.0 mi South 4.6 mph - N/A   Clear
5:35 AM 33.8 °F 29.6 °F 22.1 °F 62% 30.29 in 10.0 mi South 4.6 mph - N/A   Clear
5:55 AM 34.7 °F 29.6 °F 22.1 °F 60% 30.29 in 10.0 mi South 5.8 mph - N/A   Clear
6:15 AM 35.1 °F 30.1 °F 22.1 °F 59% 30.29 in 10.0 mi South 5.8 mph - N/A   Clear
6:35 AM 35.6 °F 30.7 °F 22.1 °F 58% 30.29 in 10.0 mi SSW 5.8 mph - N/A   Clear
6:55 AM 33.6 °F 28.4 °F 22.1 °F 63% 30.30 in 10.0 mi SSW 5.8 mph - N/A   Clear
7:55 AM 34.7 °F 30.6 °F 22.1 °F 60% 30.30 in 10.0 mi South 4.6 mph - N/A   Clear
8:15 AM 35.2 °F 28.8 °F 22.8 °F 61% 30.30 in 10.0 mi SSW 8.1 mph - N/A   Clear
8:55 AM 39.7 °F 34.3 °F 23.0 °F 51% 30.31 in 10.0 mi SSW 8.1 mph - N/A   Clear
9:15 AM 40.3 °F 34.9 °F 23.4 °F 51% 30.31 in 10.0 mi SSW 8.1 mph - N/A   Clear
9:35 AM 41.5 °F 36.4 °F 23.9 °F 50% 30.32 in 10.0 mi SSW 8.1 mph - N/A   Clear
10:35 AM 45.5 °F 40.8 °F 23.5 °F 42% 30.31 in 10.0 mi SW 9.2 mph - N/A   Clear
10:55 AM 46.4 °F 42.9 °F 24.6 °F 42% 30.31 in 10.0 mi SW 6.9 mph - N/A   Clear
11:15 AM 47.5 °F - 24.3 °F 40% 30.30 in 10.0 mi SW 9.2 mph - N/A   Clear
11:35 AM 48.6 °F - 24.4 °F 39% 30.29 in 10.0 mi SW 11.5 mph - N/A   Clear
12:15 PM 50.9 °F - 24.4 °F 36% 30.24 in 10.0 mi SW 8.1 mph 18.4 mph N/A   Clear
12:55 PM 52.3 °F - 23.4 °F 32% 30.21 in 10.0 mi West 12.7 mph 18.4 mph N/A   Clear
1:15 PM 52.9 °F - 22.5 °F 31% 30.20 in 10.0 mi SW 11.5 mph 19.6 mph N/A   Clear
1:35 PM 53.6 °F - 22.3 °F 30% 30.19 in 10.0 mi WSW 10.4 mph 18.4 mph N/A   Clear
1:55 PM 53.8 °F - 22.3 °F 29% 30.18 in 10.0 mi WSW 12.7 mph 19.6 mph N/A   Clear
2:35 PM 54.5 °F - 22.5 °F 29% 30.15 in 10.0 mi SSW 13.8 mph 18.4 mph N/A   Clear
2:55 PM 54.5 °F - 21.0 °F 27% 30.14 in 10.0 mi SW 12.7 mph 19.6 mph N/A   Clear
3:15 PM 54.7 °F - 21.9 °F 28% 30.13 in 10.0 mi SW 8.1 mph - N/A   Clear
3:35 PM 54.7 °F - 21.2 °F 27% 30.12 in 10.0 mi SW 13.8 mph 19.6 mph N/A   Clear
3:55 PM 54.7 °F - 20.8 °F 27% 30.11 in 10.0 mi WSW 8.1 mph - N/A   Clear
4:15 PM 54.5 °F - 21.7 °F 28% 30.10 in 10.0 mi SW 9.2 mph - N/A   Clear
4:35 PM 53.6 °F - 22.1 °F 29% 30.10 in 10.0 mi SW 12.7 mph - N/A   Clear
4:55 PM 53.2 °F - 21.9 °F 29% 30.09 in 10.0 mi SSW 13.8 mph 20.7 mph N/A   Clear
5:15 PM 52.2 °F - 23.0 °F 32% 30.09 in 10.0 mi SSW 8.1 mph - N/A   Clear
5:35 PM 50.7 °F - 23.0 °F 34% 30.08 in 10.0 mi SSW 8.1 mph - N/A   Clear
5:55 PM 49.8 °F - 23.2 °F 35% 30.08 in 10.0 mi SSW 11.5 mph 18.4 mph N/A   Clear
6:15 PM 49.5 °F - 23.4 °F 36% 30.07 in 10.0 mi SW 10.4 mph - N/A   Clear
6:35 PM 48.7 °F - 23.4 °F 37% 30.08 in 10.0 mi SW 10.4 mph - N/A   Clear
6:55 PM 48.2 °F - 23.4 °F 38% 30.08 in 10.0 mi SSW 9.2 mph - N/A   Clear
7:15 PM 47.8 °F - 23.4 °F 38% 30.08 in 10.0 mi SSW 11.5 mph 18.4 mph N/A   Clear
7:35 PM 47.3 °F - 23.5 °F 39% 30.08 in 10.0 mi SW 11.5 mph - N/A   Clear
7:55 PM 46.9 °F - 23.7 °F 40% 30.07 in 10.0 mi SSW 10.4 mph 17.3 mph N/A   Clear
8:15 PM 46.8 °F - 23.7 °F 40% 30.07 in 10.0 mi SW 10.4 mph 16.1 mph N/A   Clear
8:35 PM 46.6 °F - 23.9 °F 41% 30.06 in 10.0 mi SW 9.2 mph 16.1 mph N/A   Clear
8:55 PM 46.6 °F - 24.3 °F 42% 30.05 in 10.0 mi SW 12.7 mph 18.4 mph N/A   Clear
9:15 PM 46.4 °F 42.4 °F 24.4 °F 42% 30.05 in 10.0 mi SW 8.1 mph 20.7 mph N/A   Clear
9:35 PM 45.9 °F 40.4 °F 24.8 °F 44% 30.05 in 10.0 mi SW 11.5 mph 16.1 mph N/A   Clear
9:55 PM 45.9 °F 41.2 °F 24.8 °F 44% 30.05 in 10.0 mi SW 9.2 mph 18.4 mph N/A   Clear
10:15 PM 45.7 °F 39.8 °F 24.8 °F 44% 30.04 in 10.0 mi SW 12.7 mph 16.1 mph N/A   Clear
10:35 PM 45.9 °F 41.2 °F 24.6 °F 43% 30.04 in 10.0 mi SW 9.2 mph - N/A   Clear
10:55 PM 45.7 °F 39.5 °F 24.6 °F 44% 30.04 in 10.0 mi SW 13.8 mph 19.6 mph N/A   Clear
11:15 PM 46.0 °F 39.9 °F 24.6 °F 43% 30.05 in 10.0 mi WSW 13.8 mph 18.4 mph N/A   Clear
11:35 PM 45.9 °F 40.8 °F 24.8 °F 44% 30.05 in 10.0 mi WSW 10.4 mph 16.1 mph N/A   Clear
11:55 PM 46.4 °F 40.4 °F 25.0 °F 43% 30.04 in 10.0 mi WSW 13.8 mph 21.9 mph N/A   Clear